User: anonymous   Login
Location: Holyhead Bay
(53.3667°N, 4.6667°W)
Time: 11:16:57
(UTC+00:00)
Language:

CZ-4 R/B - Orbit

View from above orbital plane
View from above orbital plane
View from above satellite
View from above satellite

Ground track
Ground track

The orbit data is extracted from the following two-line orbital elements,

1 29507U 06046C   21063.68055038  .00000888  00000-0  73384-4 0  9999
2 29507  97.7204  90.1631 0048962   9.7486 350.4676 15.00679539784394
Epoch (UTC): 04 March 2021 16:19:59
Eccentricity: 0.0048962
inclination: 97.7204°
perigee height: 531 km
apogee height: 599 km
right ascension of ascending node: 90.1631°
argument of perigee: 9.7486°
revolutions per day: 15.00679539
mean anomaly at epoch: 350.4676°
orbit number at epoch: 78439

The dashed part of the orbit path shows where the satellite is in the earth's shadow,  

DLR